Location: Antoign�
(47.0844°N, 0.1131°W)
Time: 23:12:54
(UTC+00:00)

COSMOS 2428 - Pass Details

Date: 03 March 2021
Orbit: 845 x 858 km, 70.9° (Epoch: 20 April)

Event Time Altitude Azimuth Distance (km) Brightness Sun altitude
Rises 21:00:06 0° 222° (SW) 3,394 6.0 -32.3°
Reaches altitude 10° 21:02:37 10° 227° (SW) 2,463 5.3 -32.7°
Enters shadow 21:07:07 46° 271° (W) 1,134 3.6 -33.4°
Exits shadow 21:13:52 - 20° (NNE) 2,561 5.3 -34.4°
Sets 21:16:12 0° 25° (NNE) 3,424 6.0 -34.7°
